Weather History for KEGE - November, 2012

Change the Weather History Date:

Thursday, November 1, 2012

  Actual Average Record
Temperature  
Mean Temperature 45 °F -  
Max Temperature 64 °F 50 °F 69 °F (2014)
Min Temperature 26 °F 22 °F 3 °F (1951)
Degree Days  
Heating Degree Days 20    
Moisture  
Dew Point 20 °F    
Average Humidity 55    
Maximum Humidity 80    
Minimum Humidity 14    
Precipitation  
Precipitation 0.00 in - - ()
Sea Level Pressure  
Sea Level Pressure 30.15 in    
Wind  
Wind Speed 3 mph (East)    
Max Wind Speed 15 mph    
Max Gust Speed 23 mph    
Visibility 10 miles    
Events      
Averages and records for this station are not official NWS values.
T = Trace of Precipitation, MM = Missing Value Source: NWS Daily Summary

Daily Weather History Graph

Daily Weather History Graph

Search for Another Location

Airport or City:

Trip Planner

Search our weather history database for the weather conditions in past years. The results will help you decide how hot, cold, wet, or windy it might be!

Date:

Astronomy

Nov. 01, 2012 Rise Set
Actual Time 7:36 AM MDT 6:05 PM MDT
Civil Twilight 7:08 AM MDT 6:33 PM MDT
Nautical Twilight 6:36 AM MDT 7:04 PM MDT
Astronomical Twilight 6:05 AM MDT 7:36 PM MDT
Moon 8:05 PM MDT (11/1) 10:11 AM MDT (11/1)
Length of Visible Light 11h 24m
Length of Day
10h 28m
Waning Gibbous, 92% of the Moon is Illuminated
Nov 1
Waning Gibbous
Nov 6
Last Quarter
Nov 13
New
Nov 20
First Quarter
Nov 28
Full

Hourly Weather History & Observations

Time (MDT) Temp. Windchill Dew Point Humidity Pressure Visibility Wind Dir Wind Speed Gust Speed Precip Events Conditions
12:15 AM 33.8 °F 28.6 °F 21.2 °F 60% 30.22 in 10.0 mi East 5.8 mph - N/A   Clear
12:35 AM 35.6 °F - 21.2 °F 56% 30.23 in 10.0 mi Calm Calm - N/A   Clear
12:55 AM 33.8 °F - 21.2 °F 60% 30.23 in 10.0 mi Calm Calm - N/A   Clear
1:15 AM 33.8 °F - 21.2 °F 60% 30.23 in 10.0 mi Calm Calm - N/A   Clear
1:35 AM 30.2 °F - 23.0 °F 75% 30.23 in 10.0 mi Calm Calm - N/A   Clear
1:55 AM 30.2 °F 26.7 °F 23.0 °F 75% 30.24 in 10.0 mi ESE 3.5 mph - N/A   Clear
2:15 AM 30.2 °F 24.3 °F 23.0 °F 75% 30.23 in 10.0 mi East 5.8 mph - N/A   Clear
2:35 AM 30.2 °F 24.3 °F 23.0 °F 75% 30.23 in 10.0 mi East 5.8 mph - N/A   Clear
2:55 AM 28.4 °F - 23.0 °F 80% 30.23 in 10.0 mi Calm Calm - N/A   Clear
3:15 AM 28.4 °F 24.6 °F 23.0 °F 80% 30.23 in 10.0 mi East 3.5 mph - N/A   Clear
3:35 AM 28.4 °F - 23.0 °F 80% 30.23 in 10.0 mi Calm Calm - N/A   Clear
3:55 AM 28.4 °F - 21.2 °F 74% 30.23 in 10.0 mi Calm Calm - N/A   Clear
4:15 AM 28.4 °F - 21.2 °F 74% 30.22 in 10.0 mi Calm Calm - N/A   Clear
4:35 AM 28.4 °F - 21.2 °F 74% 30.22 in 10.0 mi Calm Calm - N/A   Clear
4:55 AM 26.6 °F 21.2 °F 21.2 °F 80% 30.22 in 10.0 mi East 4.6 mph - N/A   Clear
5:15 AM 26.6 °F - 21.2 °F 80% 30.22 in 10.0 mi Calm Calm - N/A   Clear
5:35 AM 26.6 °F - 21.2 °F 80% 30.22 in 10.0 mi Calm Calm - N/A   Clear
5:55 AM 26.6 °F - 21.2 °F 80% 30.22 in 10.0 mi Calm Calm - N/A   Clear
6:35 AM 26.6 °F - 21.2 °F 80% 30.22 in 10.0 mi Calm Calm - N/A   Clear
6:50 AM 26.6 °F - 21.2 °F 80% 30.22 in 10.0 mi Calm Calm - N/A   Clear
8:50 AM 26.6 °F - 21.2 °F 80% 30.24 in 10.0 mi Calm Calm - N/A   Mostly Cloudy
9:50 AM 30.2 °F - 23.0 °F 75% 30.24 in 10.0 mi Calm Calm - N/A   Mostly Cloudy
10:50 AM 37.4 °F - 23.0 °F 56% 30.22 in 10.0 mi Calm Calm - N/A   Mostly Cloudy
11:50 AM 42.8 °F - 24.8 °F 49% 30.19 in 10.0 mi Calm Calm - N/A   Overcast
12:49 PM 48.2 °F - 23.0 °F 37% 30.14 in 10.0 mi Calm Calm - N/A   Overcast
1:49 PM 51.8 °F - 23.0 °F 33% 30.09 in 10.0 mi Calm Calm - N/A   Mostly Cloudy
2:49 PM 57.2 °F - 21.2 °F 25% 30.06 in 10.0 mi Calm Calm - N/A   Mostly Cloudy
3:48 PM 64.4 °F - 14.0 °F 14% 30.04 in 10.0 mi WSW 15.0 mph 23.0 mph N/A   Mostly Cloudy
4:55 PM 62.6 °F - 14.0 °F 15% 30.04 in 10.0 mi West 9.2 mph - N/A   Scattered Clouds
6:48 PM 55.4 °F - 15.8 °F 21% 30.05 in 10.0 mi Calm Calm - N/A   Scattered Clouds
7:15 PM 53.6 °F - 17.6 °F 24% 30.05 in 10.0 mi NW 3.5 mph - N/A   Clear
7:35 PM 51.8 °F - 17.6 °F 26% 30.06 in 10.0 mi North 3.5 mph - N/A   Clear
7:55 PM 46.4 °F 42.4 °F 17.6 °F 32% 30.06 in 10.0 mi East 8.1 mph - N/A   Clear
8:15 PM 46.4 °F 41.5 °F 17.6 °F 32% 30.05 in 10.0 mi East 10.4 mph - N/A   Clear
8:35 PM 44.6 °F 39.2 °F 17.6 °F 34% 30.05 in 10.0 mi East 10.4 mph - N/A   Clear
8:55 PM 44.6 °F 42.2 °F 17.6 °F 34% 30.06 in 10.0 mi East 4.6 mph - N/A   Clear
9:15 PM 42.8 °F 37.5 °F 19.4 °F 39% 30.06 in 10.0 mi East 9.2 mph - N/A   Clear
9:35 PM 42.8 °F 40.1 °F 17.6 °F 36% 30.07 in 10.0 mi ESE 4.6 mph - N/A   Clear
9:55 PM 41.0 °F - 19.4 °F 42% 30.07 in 10.0 mi Calm Calm - N/A   Clear
10:15 PM 39.2 °F 35.9 °F 19.4 °F 45% 30.07 in 10.0 mi ESE 4.6 mph - N/A   Clear
10:35 PM 39.2 °F 37.0 °F 19.4 °F 45% 30.08 in 10.0 mi ESE 3.5 mph - N/A   Clear
10:55 PM 39.2 °F 34.2 °F 19.4 °F 45% 30.08 in 10.0 mi East 6.9 mph - N/A   Clear
11:15 PM 37.4 °F - 19.4 °F 48% 30.08 in 10.0 mi Calm Calm - N/A   Clear
11:35 PM 37.4 °F - 19.4 °F 48% 30.08 in 10.0 mi Calm Calm - N/A   Clear
11:55 PM 35.6 °F - 19.4 °F 52% 30.08 in 10.0 mi Calm Calm - N/A   Clear